Vacaville, CA

12:44 PM PDT on June 23, 2017 (GMT -0700)
Nut Tree

Weather History for KVCB - December, 2012

Change the Weather History Date:

Saturday, December 22, 2012

  Actual Average Record
Temperature  
Mean Temperature 51 °F -  
Max Temperature 57 °F 52 °F 70 °F (1999)
Min Temperature 45 °F 35 °F 18 °F (1990)
Degree Days  
Heating Degree Days 14    
Growing Degree Days 1 (Base 50)    
Moisture  
Dew Point 46 °F    
Average Humidity 90    
Maximum Humidity 100    
Minimum Humidity 59    
Precipitation  
Precipitation 1.20 in - - ()
Sea Level Pressure  
Sea Level Pressure 29.93 in    
Wind  
Wind Speed 10 mph (South)    
Max Wind Speed 17 mph    
Max Gust Speed 24 mph    
Visibility 8 miles    
Events Rain    
Averages and records for this station are not official NWS values.
T = Trace of Precipitation, MM = Missing Value Source: NWS Daily Summary

Daily Weather History Graph

Daily Weather History Graph

Search for Another Location

Airport or City:

Trip Planner

Search our weather history database for the weather conditions in past years. The results will help you decide how hot, cold, wet, or windy it might be!

Date:

Astronomy

Dec. 22, 2012 Rise Set
Actual Time 7:22 AM PST 4:51 PM PST
Civil Twilight 6:52 AM PST 5:21 PM PST
Nautical Twilight 6:19 AM PST 5:54 PM PST
Astronomical Twilight 5:46 AM PST 6:26 PM PST
Moon 1:09 PM PST (12/22) 2:14 AM PST (12/22)
Length of Visible Light 10h 28m
Length of Day
9h 29m
Waxing Gibbous, 74% of the Moon is Illuminated
Dec 22
Waxing Gibbous
Dec 28
Full
Jan 4
Last Quarter
Jan 11
New
Jan 18
First Quarter

Hourly Weather History & Observations

Time (PST) Temp. Windchill Dew Point Humidity Pressure Visibility Wind Dir Wind Speed Gust Speed Precip Events Conditions
12:33 AM 48.2 °F - 44.6 °F 87% 29.85 in 10.0 mi SSE 17.3 mph 24.2 mph N/A   Overcast
12:53 AM 48.9 °F - 45.0 °F 86% 29.85 in 10.0 mi SSE 16.1 mph 24.2 mph N/A   Overcast
1:49 AM 48.2 °F - 44.6 °F 87% 29.86 in 10.0 mi South 9.2 mph 17.3 mph 0.00 in Rain Light Rain
1:53 AM 48.9 °F - 45.0 °F 86% 29.86 in 10.0 mi South 15.0 mph 20.7 mph 0.00 in   Overcast
2:06 AM 48.2 °F - 44.6 °F 87% 29.85 in 10.0 mi South 10.4 mph - N/A   Mostly Cloudy
2:53 AM 48.0 °F - 45.0 °F 89% 29.85 in 10.0 mi SSE 13.8 mph 21.9 mph N/A   Mostly Cloudy
3:53 AM 48.0 °F - 46.0 °F 93% 29.86 in 9.0 mi South 8.1 mph 21.9 mph 0.00 in Rain Light Rain
3:58 AM 48.2 °F - 46.4 °F 93% 29.89 in 6.0 mi West 17.3 mph 20.7 mph 0.02 in Rain Light Rain
4:04 AM 46.4 °F 41.9 °F 46.4 °F 100% 29.88 in 1.8 mi South 9.2 mph 20.7 mph 0.17 in Rain Heavy Rain
4:14 AM 48.2 °F - 46.4 °F 93% 29.87 in 2.5 mi SW 13.8 mph 21.9 mph 0.23 in Rain Rain
4:21 AM 48.2 °F - 46.4 °F 93% 29.87 in 3.0 mi SSW 9.2 mph 19.6 mph 0.27 in Rain Rain
4:53 AM 48.9 °F - 48.0 °F 97% 29.85 in 3.0 mi SSW 9.2 mph - 0.42 in Rain Heavy Rain
5:03 AM 48.2 °F - 48.2 °F 100% 29.85 in 4.0 mi SSE 6.9 mph - 0.04 in Rain Rain
5:15 AM 48.2 °F - 48.2 °F 100% 29.86 in 5.0 mi SSE 8.1 mph - 0.07 in Rain Rain
5:31 AM 46.4 °F 45.2 °F 46.4 °F 100% 29.86 in 1.8 mi Variable 3.5 mph - 0.17 in Rain Heavy Rain
5:47 AM 48.2 °F - 46.4 °F 93% 29.86 in 2.0 mi Variable 5.8 mph - 0.36 in Rain Heavy Rain
5:51 AM 48.2 °F - 46.4 °F 93% 29.86 in 3.0 mi South 6.9 mph - 0.37 in Rain Rain
5:53 AM 48.0 °F - 46.9 °F 96% 29.86 in 4.0 mi South 9.2 mph - 0.37 in Rain Rain
6:53 AM 48.0 °F - 48.0 °F 100% 29.90 in 4.0 mi SSW 3.5 mph - 0.17 in Rain Rain
7:53 AM 46.9 °F - 43.0 °F 86% 29.91 in 7.0 mi South 5.8 mph - 0.12 in Rain Light Rain
8:53 AM 46.9 °F - 46.0 °F 97% 29.92 in 10.0 mi South 6.9 mph - 0.01 in   Mostly Cloudy
9:53 AM 48.0 °F - 46.9 °F 96% 29.95 in 10.0 mi South 5.8 mph - N/A   Mostly Cloudy
10:35 AM 50.0 °F - 48.2 °F 94% 29.96 in 10.0 mi South 9.2 mph - N/A   Mostly Cloudy
10:53 AM 51.1 °F - 48.9 °F 92% 29.96 in 10.0 mi South 9.2 mph - N/A   Scattered Clouds
11:53 AM 55.0 °F - 48.9 °F 80% 29.95 in 10.0 mi South 10.4 mph 17.3 mph N/A   Mostly Cloudy
12:53 PM 55.9 °F - 44.1 °F 64% 29.94 in 10.0 mi SSW 11.5 mph - N/A   Mostly Cloudy
1:53 PM 57.0 °F - 43.0 °F 59% 29.94 in 10.0 mi SW 10.4 mph - 0.01 in   Overcast
2:53 PM 55.0 °F - 41.0 °F 59% 29.95 in 10.0 mi SW 12.7 mph - N/A   Overcast
3:53 PM 50.0 °F - 44.1 °F 80% 29.98 in 5.0 mi SW 9.2 mph - 0.01 in Rain Light Rain
4:53 PM 48.9 °F - 42.1 °F 77% 29.99 in 10.0 mi South 4.6 mph - 0.02 in   Mostly Cloudy
5:53 PM 46.9 °F - 43.0 °F 86% 30.01 in 10.0 mi SSE 4.6 mph - N/A   Partly Cloudy
6:53 PM 45.0 °F 43.5 °F 43.0 °F 93% 30.02 in 10.0 mi ENE 3.5 mph - N/A   Partly Cloudy
7:53 PM 46.0 °F - 44.1 °F 93% 30.05 in 10.0 mi Calm Calm - N/A   Mostly Cloudy
8:41 PM 46.4 °F 42.9 °F 44.6 °F 93% 30.06 in 7.0 mi SE 6.9 mph - 0.02 in Rain Light Rain
8:53 PM 48.0 °F - 45.0 °F 89% 30.06 in 10.0 mi Variable 4.6 mph - 0.02 in   Overcast
9:53 PM 46.9 °F - 46.0 °F 97% 30.09 in 10.0 mi Calm Calm - 0.05 in Rain Light Rain
10:53 PM 46.9 °F - 46.0 °F 97% 30.09 in 9.0 mi Calm Calm - 0.00 in   Overcast
11:04 PM 46.4 °F 44.3 °F 46.4 °F 100% 30.08 in 10.0 mi SSE 4.6 mph - N/A   Overcast
11:53 PM 48.0 °F - 46.0 °F 93% 30.09 in 10.0 mi WSW 3.5 mph - N/A   Overcast